GW6711 Weather Reports


time (UTC)temp
F
wind
direction
speed
knots
gust
knots
rain 1hr
in
rain 24hr
in
rain mn
in
humidity
%
barometer
mb
20260906234555 66 333 1.7 4.3 0.00 0.09 0.02 68 1016.6
20260906233055 65 300 0.9 5.2 0.00 0.09 0.02 69 1016.7
20260906231601 64 307 0.9 4.3 0.00 0.09 0.02 69 1016.7
20260906230113 63 275 2.6 5.2 0.00 0.09 0.02 68 1017.2
20260906224608 62 271 3.5 6.1 0.00 0.09 0.02 68 1017.3
20260906223053 62 288 2.6 7.0 0.00 0.09 0.02 66 1017.5
20260906221600 63 290 1.7 3.5 0.00 0.09 0.02 69 1017.5
20260906214558 64 358 0.0 2.6 0.00 0.09 0.02 69 1017.5
20260906213054 64 0 0.9 3.5 0.00 0.09 0.02 69 1017.4
20260906211557 64 63 1.7 4.3 0.00 0.09 0.02 69 1017.4
20260906204604 64 37 0.0 3.5 0.00 0.09 0.02 68 1017.4
20260906203049 63 27 0.9 2.6 0.00 0.09 0.02 68 1017.4
20260906201605 63 46 0.9 4.3 0.00 0.09 0.02 68 1017.5
20260906200053 63 25 0.9 3.5 0.00 0.09 0.02 68 1017.6
20260906194553 63 56 1.7 5.2 0.00 0.09 0.02 69 1017.7
20260906193101 63 54 0.9 5.2 0.00 0.09 0.02 69 1017.8
20260906191553 64 74 1.7 6.1 0.00 0.09 0.02 69 1017.8
20260906190058 65 39 1.7 6.1 0.00 0.09 0.02 68 1017.8
20260906184554 64 16 1.7 7.8 0.00 0.09 0.02 65 1017.7
20260906183112 62 55 0.9 5.2 0.00 0.09 0.02 48 1017.8
20260906181619 61 310 1.7 4.3 0.00 0.09 0.02 28 1018.0
20260906180115 60 37 1.7 5.2 0.01 0.09 0.02 100 1017.9
20260906174556 57 77 0.9 4.3 0.01 0.09 0.02 100 1018.7
20260906173050 56 91 0.9 4.3 0.01 0.09 0.02 100 1018.5
20260906171549 56 296 1.7 5.2 0.00 0.08 0.01 100 1019.9
20260906170053 56 281 1.7 5.2 0.00 0.08 0.01 100 1019.9
20260906164552 56 243 0.9 1.7 0.00 0.08 0.01 100 1019.8
20260906163050 56 0 0.0 1.7 0.01 0.08 0.01 100 1019.7
20260906161603 55 302 0.0 3.5 0.01 0.08 0.01 100 1019.5
20260906160056 54 305 1.7 4.3 0.01 0.08 0.01 100 1019.5
20260906154554 54 291 2.6 6.1 0.01 0.08 0.01 100 1019.8
20260906153054 54 287 3.5 8.7 0.00 0.07 0.00 100 1020.2
20260906151548 54 342 4.3 13.0 0.00 0.07 0.00 4 1020.3
20260906150059 54 283 5.2 11.3 0.00 0.07 0.00 10 1020.3
20260906144602 54 264 6.1 18.2 0.00 0.08 0.00 17 1020.4
20260906143053 57 274 7.0 13.0 0.00 0.08 0.00 42 1020.7
20260906141606 58 304 0.0 1.7 0.00 0.08 0.00 30 1020.4
20260906140058 58 0 0.0 1.7 0.00 0.08 0.00 32 1020.2
20260906134601 59 0 0.0 2.6 0.00 0.12 0.00 36 1020.0
20260906133058 58 53 0.9 3.5 0.00 0.12 0.00 32 1019.9
20260906131606 57 19 0.0 6.1 0.00 0.12 0.00 24 1019.7
20260906130110 57 51 0.0 5.2 0.00 0.12 0.00 20 1019.7
20260906124554 57 319 0.9 3.5 0.00 0.12 0.00 20 1020.2
20260906123054 56 48 0.9 3.5 0.00 0.12 0.00 13 1019.9
20260906121556 56 37 1.7 3.5 0.00 0.12 0.00 14 1019.6
20260906120101 56 11 0.9 5.2 0.00 0.12 0.00 16 1019.9
20260906114607 56 359 0.9 3.5 0.00 0.12 0.00 17 1020.2
20260906113056 55 17 0.9 4.3 0.00 0.12 0.00 23 1020.1
20260906111558 56 31 0.9 6.1 0.00 0.12 0.00 35 1020.0
20260906110059 56 44 1.7 6.1 0.00 0.12 0.00 39 1019.9
20260906104556 57 18 2.6 7.0 0.00 0.12 0.00 42 1020.0
20260906103053 57 45 1.7 6.1 0.00 0.12 0.00 39 1020.1
20260906101552 57 355 2.6 7.8 0.00 0.12 0.00 45 1020.1
20260906100058 57 321 2.6 10.4 0.00 0.12 0.00 38 1020.2
20260906094554 56 4 1.7 6.1 0.00 0.12 0.00 33 1020.2
20260906093054 56 18 3.5 8.7 0.00 0.12 0.00 34 1020.2
20260906091550 56 287 3.5 7.8 0.00 0.12 0.00 35 1020.3
20260906090058 57 279 4.3 9.6 0.00 0.12 0.00 43 1020.7
20260906084556 58 355 4.3 8.7 0.00 0.12 0.00 50 1021.1
20260906083059 56 11 3.5 11.3 0.00 0.12 0.00 30 1021.3
20260906081619 57 321 1.7 4.3 0.00 0.12 0.00 42 1021.4
20260906080050 57 67 0.9 8.7 0.00 0.12 0.00 43 1020.8
20260906074614 57 351 2.6 7.8 0.00 0.12 0.00 46 1020.7
20260906073053 57 316 3.5 7.8 0.00 0.12 0.00 43 1020.7
20260906071555 56 16 1.7 6.1 0.00 0.12 0.00 36 1020.9
20260906070051 57 354 2.6 6.1 0.00 0.12 0.00 39 1021.0
20260906064558 56 330 2.6 8.7 0.00 0.12 0.00 31 1021.6
20260906063055 57 276 2.6 6.1 0.00 0.12 0.00 41 1021.9
20260906061559 57 63 3.5 9.6 0.00 0.12 0.00 42 1021.6
20260906054549 56 6 1.7 5.2 0.00 0.12 0.12 48 1021.7
20260906053053 56 15 0.9 4.3 0.00 0.12 0.12 48 1021.5
20260906051600 56 321 2.6 6.1 0.00 0.12 0.12 48 1021.3
20260906050059 56 348 3.5 8.7 0.00 0.12 0.12 45 1021.1
20260906044556 57 26 4.3 8.7 0.00 0.12 0.12 45 1020.9
20260906043052 57 349 2.6 7.0 0.00 0.12 0.12 42 1021.5
20260906041553 56 340 3.5 7.8 0.07 0.12 0.12 41 1020.6
20260906034557 57 286 0.9 7.0 0.07 0.12 0.12 59 1020.7
20260906033054 58 316 2.6 7.0 0.07 0.12 0.12 61 1021.3
20260906031558 60 352 1.7 7.0 0.00 0.05 0.05 68 1021.8
20260906030058 60 316 4.3 10.4 0.00 0.05 0.05 69 1020.6
20260906024554 60 315 4.3 11.3 0.00 0.05 0.05 69 1019.7
20260906023053 60 27 3.5 10.4 0.00 0.05 0.05 68 1019.5
20260906021550 61 340 2.6 4.3 0.00 0.05 0.05 66 1019.5
20260906020104 62 1 1.7 7.0 0.00 0.05 0.05 64 1019.6
20260906014555 63 36 1.7 4.3 0.00 0.05 0.05 61 1019.6
20260906013104 65 16 1.7 5.2 0.00 0.05 0.05 59 1019.6
20260906011551 65 65 0.9 6.1 0.00 0.05 0.05 58 1019.4
20260906010101 66 22 0.9 6.1 0.00 0.05 0.05 57 1019.7
20260906004552 67 78 0.9 7.0 0.00 0.05 0.05 55 1019.6
20260906003105 69 86 2.6 7.8 0.00 0.05 0.05 52 1019.7
20260906001559 70 357 1.7 6.1 0.00 0.05 0.05 50 1019.6
20260906000057 73 44 2.6 8.7 0.00 0.05 0.05 47 1019.6